TimeWET,TemperatureF,Dew PointF,Humidity,Sea Level PressureIn,VisibilityMPH,Wind Direction,Wind SpeedMPH,Gust SpeedMPH,PrecipitationIn,Events,Conditions,WindDirDegrees,DateUTC
6:00 AM,64,58,73,29.73,6,SW,2.3,,,,Partly Cloudy,220,2012-10-26 06:00:00
6:00 AM,64.4,57.2,77,29.71,6.2,SW,2.3,-,N/A,,Mostly Cloudy,220,2012-10-26 06:00:00
7:00 AM,66.2,59.0,78,29.71,6.2,West,2.3,-,N/A,,Mostly Cloudy,260,2012-10-26 07:00:00
8:00 AM,68.0,62.6,83,29.74,6.2,West,4.6,-,N/A,,Mostly Cloudy,260,2012-10-26 08:00:00
9:00 AM,71,62,67,29.74,6,NNE,2.3,,,,Mostly Cloudy,20,2012-10-26 09:00:00
9:00 AM,71.6,62.6,73,29.74,6.2,NNE,2.3,-,N/A,,Scattered Clouds,20,2012-10-26 09:00:00
10:00 AM,71.6,62.6,73,29.74,6.2,NNE,6.9,-,N/A,,Scattered Clouds,20,2012-10-26 10:00:00
11:00 AM,71.6,62.6,73,29.74,6.2,NNW,4.6,-,N/A,,Scattered Clouds,340,2012-10-26 11:00:00
12:00 PM,71.6,62.6,73,29.71,6.2,ESE,2.3,-,N/A,Rain,Light Rain,120,2012-10-26 12:00:00
1:00 PM,75.2,64.4,69,29.68,6.2,ESE,2.3,-,N/A,,Scattered Clouds,120,2012-10-26 13:00:00
2:00 PM,71.6,62.6,73,29.68,6.2,North,4.6,-,N/A,,Mostly Cloudy,360,2012-10-26 14:00:00
3:00 PM,74,64,62,29.68,6,South,4.6,,,Rain,Light Rain,180,2012-10-26 15:00:00
3:00 PM,75.2,64.4,69,29.65,6.2,South,4.6,-,N/A,,Mostly Cloudy,180,2012-10-26 15:00:00
4:00 PM,75.2,62.6,65,29.65,6.2,SSW,2.3,-,N/A,,Scattered Clouds,200,2012-10-26 16:00:00
5:00 PM,69.8,60.8,73,29.68,6.2,NNW,9.2,-,N/A,,Partly Cloudy,340,2012-10-26 17:00:00
6:00 PM,69,61,70,29.70,6,East,2.3,,,,Partly Cloudy,100,2012-10-26 18:00:00
6:00 PM,68.0,60.8,78,29.98,6.2,East,2.3,-,N/A,,Partly Cloudy,100,2012-10-26 18:00:00
7:00 PM,68.0,60.8,78,30.01,6.2,NNE,4.6,-,N/A,,Scattered Clouds,20,2012-10-26 19:00:00
8:00 PM,68.0,60.8,78,29.71,6.2,South,4.6,-,N/A,,Scattered Clouds,180,2012-10-26 20:00:00
9:00 PM,67,60,72,29.73,6,SSE,2.3,,,,Mostly Cloudy,160,2012-10-26 21:00:00
9:00 PM,68.0,60.8,78,29.71,6.2,SSE,2.3,-,N/A,,Scattered Clouds,160,2012-10-26 21:00:00